Terug naar catalogus

CZ-6A DEB

ActiefSSO
NORAD 54424·DEBRIS·🇨🇳 China

Gelanceerd Nov 11, 2022 vanaf Taiyuan Satellite Launch Center

Loading…

Volgende Passages (komende 24 uur)

TLE

VersSource: Space-Track

Epoch: Sep 14, 2026, 12:52 UTC

1 54424U 22151EY  26257.53664758  .00000017  00000-0  39011-4 0  9992
2 54424  98.9753 251.2360 0105850 137.1955 223.7513 13.99865518195857

Volg CZ-6A DEB in realtime met AllMySat

Download on the App Store